AAL2040 KPVD-CYHZ

Flight info

Callsign AAL2040
Flight time N/A
Altitude 25000
Route PVD V167 PEAKE/N0447F370 DCT LFV DCT TUSKY PEGGY5
Aircraft A319/M-SDE3FGHIRWY/LB1

Departure

Time 2026-04-28 00:26
Airport Rhode Island T. F. Green International Airport (KPVD)

Arrival

Time N/A
Airport Halifax / Stanfield International Airport (CYHZ)
Time Latitude Longitude Altitude Speed Heading
2026-04-28 00:08 41.72739 -71.43327 71 ft 0 kts 313°
2026-04-28 00:17 41.72734 -71.43321 71 ft 2 kts 313°
2026-04-28 00:17 41.72725 -71.43307 71 ft 2 kts 314°
2026-04-28 00:17 41.72715 -71.43294 70 ft 2 kts 313°
2026-04-28 00:17 41.72709 -71.43285 70 ft 1 kts 314°
2026-04-28 00:18 41.72701 -71.43268 70 ft 2 kts 279°
2026-04-28 00:18 41.72701 -71.43248 69 ft 2 kts 250°
2026-04-28 00:18 41.72709 -71.43230 69 ft 1 kts 219°
2026-04-28 00:18 41.72715 -71.43226 69 ft 1 kts 208°
2026-04-28 00:19 41.72718 -71.43224 69 ft 0 kts 212°
2026-04-28 00:20 41.72671 -71.43263 70 ft 15 kts 212°
2026-04-28 00:21 41.72572 -71.43349 69 ft 17 kts 212°
2026-04-28 00:21 41.72463 -71.43440 70 ft 18 kts 212°
2026-04-28 00:21 41.72355 -71.43531 72 ft 17 kts 213°
2026-04-28 00:21 41.72261 -71.43638 73 ft 17 kts 217°
2026-04-28 00:22 41.72146 -71.43739 73 ft 16 kts 212°
2026-04-28 00:22 41.72060 -71.43728 74 ft 17 kts 128°
2026-04-28 00:22 41.71970 -71.43545 72 ft 25 kts 123°
2026-04-28 00:22 41.71878 -71.43353 71 ft 14 kts 123°
2026-04-28 00:23 41.71785 -71.43332 71 ft 17 kts 211°
2026-04-28 00:23 41.71660 -71.43439 71 ft 22 kts 211°
2026-04-28 00:23 41.71519 -71.43555 69 ft 23 kts 212°
2026-04-28 00:23 41.71377 -71.43675 69 ft 25 kts 214°
2026-04-28 00:24 41.71222 -71.43807 71 ft 24 kts 211°
2026-04-28 00:24 41.71118 -71.43891 71 ft 8 kts 196°
2026-04-28 00:24 41.71095 -71.43889 71 ft 0 kts 160°
2026-04-28 00:24 41.71060 -71.43844 71 ft 9 kts 124°
2026-04-28 00:25 41.71085 -71.43745 69 ft 15 kts 32°
2026-04-28 00:25 41.71355 -71.43519 68 ft 82 kts 32°
2026-04-28 00:25 41.72054 -71.42931 76 ft 145 kts 34°
2026-04-28 00:25 41.72984 -71.42138 478 ft 161 kts 34°
2026-04-28 00:26 41.73876 -71.41202 1205 ft 163 kts 48°
2026-04-28 00:26 41.74517 -71.39961 1967 ft 162 kts 63°
2026-04-28 00:26 41.74980 -71.38519 2427 ft 175 kts 66°
2026-04-28 00:26 41.75449 -71.36929 2859 ft 192 kts 67°
2026-04-28 00:27 41.75974 -71.35144 3154 ft 219 kts 65°
2026-04-28 00:27 41.76592 -71.33088 3596 ft 240 kts 66°
2026-04-28 00:27 41.77223 -71.30954 3938 ft 243 kts 66°
2026-04-28 00:27 41.77848 -71.28827 3985 ft 243 kts 66°
2026-04-28 00:28 41.78469 -71.26707 3986 ft 244 kts 66°
2026-04-28 00:28 41.79100 -71.24559 4157 ft 251 kts 66°
2026-04-28 00:28 41.79727 -71.22398 5065 ft 253 kts 68°
2026-04-28 00:28 41.80208 -71.20185 6180 ft 251 kts 73°
2026-04-28 00:29 41.80622 -71.17920 7155 ft 253 kts 73°
2026-04-28 00:29 41.81031 -71.15658 8069 ft 257 kts 72°
2026-04-28 00:29 41.81459 -71.13321 8994 ft 260 kts 72°
2026-04-28 00:29 41.81893 -71.10995 9838 ft 263 kts 72°
2026-04-28 00:30 41.82341 -71.08604 10574 ft 270 kts 72°
2026-04-28 00:30 41.82818 -71.06096 11014 ft 288 kts 72°
2026-04-28 00:30 41.83325 -71.03419 11405 ft 306 kts 72°
2026-04-28 00:30 41.83863 -71.00587 11756 ft 324 kts 72°
2026-04-28 00:31 41.84427 -70.97600 12257 ft 336 kts 72°
2026-04-28 00:31 41.85003 -70.94534 12986 ft 340 kts 72°
2026-04-28 00:31 41.85581 -70.91447 13678 ft 345 kts 72°
2026-04-28 00:31 41.86163 -70.88345 14338 ft 349 kts 72°
2026-04-28 00:32 41.86762 -70.85146 15032 ft 353 kts 72°
2026-04-28 00:32 41.87363 -70.81940 15710 ft 357 kts 72°
2026-04-28 00:32 41.87977 -70.78647 16498 ft 357 kts 71°
2026-04-28 00:32 41.88579 -70.75425 17127 ft 361 kts 71°
2026-04-28 00:33 41.89187 -70.72173 17707 ft 365 kts 71°
2026-04-28 00:33 41.89802 -70.68868 18453 ft 364 kts 71°
2026-04-28 00:33 41.90420 -70.65532 19225 ft 363 kts 70°
2026-04-28 00:33 41.91045 -70.62156 19984 ft 361 kts 70°
2026-04-28 00:34 41.91679 -70.58736 20735 ft 361 kts 70°
2026-04-28 00:34 41.92287 -70.55456 21452 ft 359 kts 70°
2026-04-28 00:34 41.92884 -70.52222 22135 ft 359 kts 70°
2026-04-28 00:34 41.93517 -70.48784 22862 ft 357 kts 69°
2026-04-28 00:35 41.94111 -70.45556 23530 ft 356 kts 69°
2026-04-28 00:35 41.94716 -70.42262 24123 ft 356 kts 69°
2026-04-28 00:35 41.95312 -70.39023 24602 ft 360 kts 69°
2026-04-28 00:35 41.95913 -70.35756 25049 ft 363 kts 69°
2026-04-28 00:36 41.96527 -70.32409 25297 ft 366 kts 70°
2026-04-28 00:36 41.97138 -70.29060 25304 ft 366 kts 70°
2026-04-28 00:36 41.97747 -70.25720 25304 ft 367 kts 70°
2026-04-28 00:36 41.98359 -70.22354 25313 ft 367 kts 70°
2026-04-28 00:37 41.98964 -70.19009 25305 ft 366 kts 70°
2026-04-28 00:37 41.99565 -70.15683 25307 ft 366 kts 70°
2026-04-28 00:37 42.00161 -70.12385 25304 ft 366 kts 70°
2026-04-28 00:37 42.00772 -70.09004 25308 ft 366 kts 70°
2026-04-28 00:38 42.01470 -70.05675 25306 ft 362 kts 64°
2026-04-28 00:38 42.02483 -70.02608 25309 ft 358 kts 56°
2026-04-28 00:38 42.03805 -69.99768 25306 ft 356 kts 50°
2026-04-28 00:38 42.05261 -69.97021 25306 ft 357 kts 49°
2026-04-28 00:39 42.06728 -69.94293 25308 ft 357 kts 49°
2026-04-28 00:39 42.08205 -69.91547 25310 ft 358 kts 49°
2026-04-28 00:39 42.09656 -69.88843 25310 ft 358 kts 49°
2026-04-28 00:39 42.11106 -69.86134 25305 ft 357 kts 49°
2026-04-28 00:40 42.12569 -69.83398 25308 ft 358 kts 50°
2026-04-28 00:40 42.14016 -69.80682 25307 ft 358 kts 50°
2026-04-28 00:40 42.15482 -69.77924 25308 ft 358 kts 50°
2026-04-28 00:40 42.16920 -69.75217 25305 ft 358 kts 50°
2026-04-28 00:41 42.18376 -69.72472 25309 ft 358 kts 50°
2026-04-28 00:41 42.19820 -69.69750 25312 ft 358 kts 50°
2026-04-28 00:41 42.21265 -69.67025 25309 ft 358 kts 50°
2026-04-28 00:41 42.22728 -69.64259 25300 ft 358 kts 50°
2026-04-28 00:42 42.24244 -69.61391 25301 ft 358 kts 50°
2026-04-28 00:42 42.25727 -69.58585 25304 ft 359 kts 50°
2026-04-28 00:42 42.27195 -69.55804 25307 ft 359 kts 51°
2026-04-28 00:42 42.28665 -69.53018 25301 ft 360 kts 51°
2026-04-28 00:43 42.30186 -69.50125 25298 ft 360 kts 51°
2026-04-28 00:43 42.31648 -69.47347 25301 ft 360 kts 51°
2026-04-28 00:43 42.33097 -69.44591 25298 ft 360 kts 51°
2026-04-28 00:43 42.34566 -69.41793 25297 ft 360 kts 51°
2026-04-28 00:44 42.36077 -69.38916 25297 ft 360 kts 51°
2026-04-28 00:44 42.37532 -69.36140 25290 ft 360 kts 51°
2026-04-28 00:44 42.38985 -69.33366 25291 ft 360 kts 52°
2026-04-28 00:44 42.40477 -69.30516 25295 ft 360 kts 52°
2026-04-28 00:45 42.41911 -69.27775 25297 ft 361 kts 52°
2026-04-28 00:45 42.43363 -69.24992 25292 ft 360 kts 52°
2026-04-28 00:45 42.44837 -69.22169 25298 ft 361 kts 52°
2026-04-28 00:45 42.46281 -69.19401 25306 ft 361 kts 52°
2026-04-28 00:46 42.47760 -69.16560 25297 ft 361 kts 52°
2026-04-28 00:46 42.49246 -69.13702 25303 ft 361 kts 52°
2026-04-28 00:46 42.50700 -69.10909 25305 ft 362 kts 52°
2026-04-28 00:46 42.52191 -69.08034 25302 ft 362 kts 52°
2026-04-28 00:47 42.53667 -69.05190 25308 ft 362 kts 52°
2026-04-28 00:47 42.55114 -69.02399 25311 ft 362 kts 52°
2026-04-28 00:47 42.56565 -68.99599 25309 ft 362 kts 53°
2026-04-28 00:47 42.58033 -68.96764 25305 ft 363 kts 53°
2026-04-28 00:48 42.59497 -68.93928 25308 ft 363 kts 53°
2026-04-28 00:48 42.60944 -68.91127 25307 ft 363 kts 53°
2026-04-28 00:48 42.62422 -68.88261 25310 ft 363 kts 53°
2026-04-28 00:48 42.63868 -68.85455 25316 ft 363 kts 53°
2026-04-28 00:49 42.65346 -68.82585 25304 ft 363 kts 53°
2026-04-28 00:49 42.66814 -68.79731 25308 ft 364 kts 53°
2026-04-28 00:49 42.68282 -68.76875 25316 ft 363 kts 53°
2026-04-28 00:49 42.69751 -68.74014 25306 ft 364 kts 53°
2026-04-28 00:50 42.71202 -68.71186 25306 ft 364 kts 53°
2026-04-28 00:50 42.72681 -68.68300 25309 ft 364 kts 53°
2026-04-28 00:50 42.74128 -68.65475 25312 ft 364 kts 53°
2026-04-28 00:50 42.75625 -68.62549 25308 ft 363 kts 53°
2026-04-28 00:51 42.77077 -68.59708 25309 ft 363 kts 53°
2026-04-28 00:51 42.78532 -68.56858 25309 ft 363 kts 53°
2026-04-28 00:51 42.79995 -68.53989 25310 ft 363 kts 53°
2026-04-28 00:51 42.81459 -68.51115 25309 ft 363 kts 53°
2026-04-28 00:52 42.82932 -68.48222 25316 ft 363 kts 53°
2026-04-28 00:52 42.84359 -68.45418 25318 ft 363 kts 53°
2026-04-28 00:52 42.85796 -68.42590 25322 ft 363 kts 53°
2026-04-28 00:52 42.87224 -68.39777 25324 ft 362 kts 53°
2026-04-28 00:53 42.88685 -68.36897 25320 ft 362 kts 53°
2026-04-28 00:53 42.90120 -68.34063 25316 ft 362 kts 54°
2026-04-28 00:53 42.91557 -68.31224 25321 ft 362 kts 54°
2026-04-28 00:53 42.93010 -68.28352 25317 ft 362 kts 54°
2026-04-28 00:54 42.94453 -68.25494 25319 ft 362 kts 54°
2026-04-28 00:54 42.95905 -68.22618 25315 ft 362 kts 54°
2026-04-28 00:54 42.97344 -68.19765 25326 ft 363 kts 54°
2026-04-28 00:54 42.98770 -68.16936 25318 ft 362 kts 54°
2026-04-28 00:55 43.00192 -68.14110 25322 ft 363 kts 54°
2026-04-28 00:55 43.01635 -68.11239 25324 ft 362 kts 54°
2026-04-28 00:55 43.03088 -68.08347 25318 ft 363 kts 54°
2026-04-28 00:55 43.04544 -68.05444 25324 ft 363 kts 54°
2026-04-28 00:56 43.05971 -68.02597 25325 ft 362 kts 54°
2026-04-28 00:56 43.07420 -67.99705 25321 ft 362 kts 54°
2026-04-28 00:56 43.08844 -67.96857 25322 ft 362 kts 54°
2026-04-28 00:56 43.10299 -67.93947 25326 ft 362 kts 54°